Location: Unspecified
(48.5670°N, 0.0000°E)
Time: 12:24:26
(UTC+00:00)

Transit 4A - Pass Details

Date: 01 September 2019
Orbit: 865 x 980 km, 66.8° (Epoch: 19 September)

Event Time Altitude Azimuth Distance (km) Brightness Sun altitude
Rises 21:17:21 0° 316° (NW) 3,666 12.5 -23.0°
Reaches altitude 10° 21:21:02 10° 337° (NNW) 2,700 11.3 -23.4°
Maximum altitude 21:24:55 17° 15° (NNE) 2,232 10.2 -23.9°
Drops below altitude 10° 21:28:45 10° 54° (NE) 2,651 10.2 -24.3°
Enters shadow 21:30:24 - 65° (ENE) 3,037 10.4 -24.5°
